DW1541 Weather Reports


Display with metric or nautical units.
time (UTC)temp
F
wind
direction
speed
MPH
gust
MPH
rain 1hr
in
rain 24hr
in
rain mn
in
humidity
%
barometer
mb
20190627035951 56 213 0.0 0.0 0.00 0.08 0.08 92 1011.6
20190627035004 56 213 0.0 0.0 0.00 0.08 0.08 92 1011.6
20190627033950 57 213 0.0 0.0 0.00 0.08 0.08 91 1011.4
20190627032951 57 213 0.0 0.0 0.00 0.08 0.08 91 1011.3
20190627032005 57 213 0.0 0.0 0.00 0.08 0.08 89 1011.2
20190627031000 57 213 0.0 0.0 0.00 0.08 0.08 89 1011.3
20190627025952 58 213 0.0 0.0 0.00 0.08 0.08 89 1011.3
20190627024915 58 213 0.0 0.0 0.00 0.08 0.08 87 1011.4
20190627023929 58 213 0.0 0.0 0.00 0.08 0.08 86 1011.3
20190627022937 59 213 0.0 0.0 0.00 0.08 0.08 85 1011.2
20190627021926 59 213 0.0 0.0 0.00 0.08 0.08 84 1011.3
20190627020945 59 213 0.0 0.0 0.00 0.08 0.08 87 1011.2
20190627015956 60 213 0.0 0.0 0.00 0.08 0.08 85 1011.4
20190627014933 60 184 0.0 0.0 0.00 0.08 0.08 84 1011.7
20190627013903 60 107 0.0 0.0 0.00 0.08 0.08 86 1011.8
20190627012900 59 229 0.0 0.0 0.00 0.08 0.08 84 1011.9
20190627011837 60 212 0.0 1.0 0.00 0.08 0.08 79 1012.1
20190627010856 60 140 0.0 0.0 0.00 0.08 0.08 82 1012.0
20190627005828 60 92 0.0 0.0 0.00 0.08 0.08 85 1011.9
20190627004758 59 220 0.0 0.0 0.00 0.08 0.08 84 1011.9
20190627003742 58 288 0.0 0.0 0.00 0.08 0.08 85 1011.7
20190627002735 58 260 0.0 0.0 0.00 0.08 0.08 87 1011.7
20190627001714 56 134 0.0 1.0 0.00 0.08 0.08 87 1012.0
20190627000731 55 92 0.0 0.0 0.00 0.08 0.08 92 1011.9
20190626235741 55 173 0.0 0.0 0.04 0.08 0.08 92 1011.9
20190626234744 55 231 0.0 0.0 0.04 0.07 0.08 91 1011.6
20190626233716 56 14 0.0 0.0 0.06 0.07 0.07 89 1011.6
20190626232655 56 138 1.0 10.0 0.06 0.06 0.06 86 1011.7
20190626231634 57 76 0.0 8.0 0.06 0.05 0.05 87 1012.0
20190626230655 58 116 0.0 6.0 0.00 0.04 0.04 86 1012.0
20190626225654 59 161 0.0 4.0 0.00 0.03 0.03 87 1011.7
20190626224623 60 235 0.0 5.0 0.00 0.03 0.03 87 1011.7
20190626223601 61 136 0.0 5.0 0.08 0.03 0.03 87 1011.8
20190626221429 63 237 0.0 0.0 0.00 0.01 0.01 83 1011.4
20190626220439 64 237 0.0 0.0 0.00 0.01 0.01 78 1011.1
20190626215411 65 237 0.0 0.0 0.00 0.00 0.00 73 1010.7
20190626214428 66 237 0.0 0.0 0.00 0.00 0.00 67 1010.4
20190626213446 66 238 0.0 0.0 0.00 0.00 0.00 67 1010.0
20190626212415 67 237 0.0 0.0 0.00 0.00 0.00 65 1010.0
20190626211433 68 242 0.0 0.0 0.00 0.00 0.00 67 1010.0
20190626210356 69 225 0.0 1.0 0.00 0.00 0.00 61 1010.0
20190626205326 70 269 0.0 0.0 0.00 0.00 0.00 59 1010.2
20190626204331 70 319 0.0 0.0 0.00 0.00 0.00 56 1010.1
20190626203351 72 298 0.0 3.0 0.00 0.00 0.00 58 1010.1
20190626202327 72 346 0.0 2.0 0.00 0.00 0.00 56 1010.2
20190626201330 71 321 0.0 0.0 0.00 0.00 0.00 57 1010.3
20190626200254 71 296 0.0 0.0 0.00 0.00 0.00 60 1010.4
20190626195246 70 273 0.0 0.0 0.00 0.00 0.00 59 1010.6
20190626194220 70 50 0.0 1.0 0.00 0.00 0.00 60 1010.7
20190626193229 68 246 0.0 2.0 0.00 0.00 0.00 63 1010.9
20190626192232 69 292 0.0 1.0 0.00 0.00 0.00 61 1011.0
20190626191202 70 295 0.0 0.0 0.00 0.00 0.00 59 1011.0
20190626190221 69 319 0.0 0.0 0.00 0.00 0.00 60 1011.0
20190626185155 68 294 0.0 1.0 0.00 0.00 0.00 63 1011.0
20190626184209 69 257 0.0 0.0 0.00 0.00 0.00 60 1011.3
20190626183138 69 327 0.0 0.0 0.00 0.00 0.00 60 1011.8
20190626182125 68 306 0.0 0.0 0.00 0.00 0.00 63 1011.8
20190626181135 67 271 0.0 1.0 0.00 0.00 0.00 63 1011.7
20190626180156 67 292 0.0 1.0 0.00 0.00 0.00 63 1011.7
20190626175123 67 347 0.0 0.0 0.00 0.00 0.00 63 1011.7
20190626174049 67 14 0.0 0.0 0.00 0.00 0.00 66 1011.9
20190626173023 65 98 0.0 1.0 0.00 0.00 0.00 69 1012.0
20190626172033 65 39 0.0 0.0 0.00 0.00 0.00 71 1012.1
20190626171015 63 273 0.0 0.0 0.00 0.00 0.00 74 1012.0
20190626165949 62 188 0.0 0.0 0.00 0.00 0.00 74 1012.0
20190626165005 61 239 0.0 0.0 0.00 0.00 0.00 76 1012.1
20190626163942 61 125 0.0 0.0 0.00 0.00 0.00 77 1012.2
20190626163001 61 125 0.0 0.0 0.00 0.00 0.00 77 1012.3
20190626162002 61 125 0.0 0.0 0.00 0.00 0.00 76 1012.5
20190626160932 61 112 0.0 0.0 0.00 0.00 0.00 77 1012.5
20190626155944 61 112 0.0 0.0 0.00 0.00 0.00 78 1012.6
20190626154908 60 111 0.0 0.0 0.00 0.00 0.00 78 1012.7
20190626153838 59 112 0.0 0.0 0.00 0.00 0.00 79 1012.7
20190626152850 59 111 0.0 0.0 0.00 0.00 0.00 81 1012.8
20190626151826 60 112 0.0 1.0 0.00 0.00 0.00 77 1012.8
20190626150807 60 116 0.0 0.0 0.00 0.00 0.00 80 1012.9
20190626145819 58 116 0.0 0.0 0.00 0.00 0.00 86 1012.9
20190626144814 56 116 0.0 0.0 0.00 0.00 0.00 91 1013.1
20190626143759 54 116 0.0 0.0 0.00 0.00 0.00 97 1013.0
20190626142815 53 116 0.0 0.0 0.00 0.00 0.00 97 1013.0
20190626141835 52 116 0.0 0.0 0.00 0.00 0.00 97 1013.1
20190626140825 51 116 0.0 0.0 0.00 0.00 0.00 97 1013.0
20190626134824 50 115 0.0 0.0 0.00 0.00 0.00 96 1012.8
20190626132833 50 116 0.0 0.0 0.00 0.00 0.00 96 1012.8
20190626131835 50 115 0.0 0.0 0.00 0.00 0.00 96 1012.9
20190626130817 50 116 0.0 0.0 0.00 0.00 0.00 96 1013.0
20190626125832 50 116 0.0 0.0 0.00 0.00 0.00 96 1012.7
20190626124826 50 116 0.0 0.0 0.00 0.00 0.00 96 1012.6
20190626123805 51 116 0.0 0.0 0.00 0.00 0.00 96 1012.8
20190626122801 51 115 0.0 0.0 0.00 0.00 0.00 95 1012.8
20190626121732 51 116 0.0 0.0 0.00 0.00 0.00 96 1012.8
20190626120744 51 116 0.0 0.0 0.00 0.00 0.00 96 1012.8
20190626115719 51 116 0.0 0.0 0.00 0.00 0.00 96 1012.9
20190626114658 52 116 0.0 0.0 0.00 0.00 0.00 96 1012.7
20190626113653 52 116 0.0 0.0 0.00 0.00 0.00 96 1012.7
20190626112621 52 116 0.0 0.0 0.00 0.00 0.00 96 1012.6
20190626111549 52 116 0.0 0.0 0.00 0.00 0.00 96 1012.8
20190626110517 52 116 0.0 0.0 0.00 0.00 0.00 96 1012.7
20190626105445 52 116 0.0 0.0 0.00 0.00 0.00 96 1012.7
20190626104504 52 116 0.0 0.0 0.00 0.00 0.00 96 1012.7
20190626103505 52 116 0.0 0.0 0.00 0.00 0.00 96 1012.7
20190626102443 51 116 0.0 0.0 0.00 0.00 0.00 96 1012.6
20190626101412 51 116 0.0 0.0 0.00 0.00 0.00 95 1012.6
20190626100415 51 116 0.0 0.0 0.00 0.00 0.00 95 1012.6
20190626095355 51 116 0.0 0.0 0.00 0.00 0.00 95 1012.7
20190626094401 51 116 0.0 0.0 0.00 0.00 0.00 95 1012.7
20190626093339 51 116 0.0 0.0 0.00 0.00 0.00 95 1012.6
20190626092323 51 116 0.0 0.0 0.00 0.00 0.00 95 1012.6
20190626091247 51 116 0.0 0.0 0.00 0.00 0.00 95 1012.7
20190626090215 51 116 0.0 0.0 0.00 0.00 0.00 94 1012.6
20190626085151 51 116 0.0 0.0 0.00 0.00 0.00 94 1012.6
20190626084201 52 115 0.0 0.0 0.00 0.00 0.00 94 1012.7
20190626083159 52 116 0.0 0.0 0.00 0.00 0.00 94 1012.7
20190626082214 52 116 0.0 0.0 0.00 0.00 0.00 93 1012.7
20190626081236 52 116 0.0 0.0 0.00 0.00 0.00 93 1012.7
20190626080256 53 116 0.0 0.0 0.00 0.00 0.00 93 1012.5
20190626075306 53 116 0.0 0.0 0.00 0.00 0.00 92 1012.4
20190626074306 53 116 0.0 0.0 0.00 0.00 0.00 92 1012.4
20190626073252 54 116 0.0 0.0 0.00 0.00 0.00 92 1012.4
20190626072218 54 116 0.0 0.0 0.00 0.00 0.00 91 1012.3
20190626065203 59 242 0.0 0.0 0.00 0.00 0.00 84 1012.5
20190626064131 59 242 0.0 0.0 0.00 0.00 0.00 84 1012.4
20190626063136 59 242 0.0 0.0 0.00 0.00 0.00 84 1012.3
20190626062123 60 242 0.0 0.0 0.00 0.00 0.00 83 1012.3
20190626061127 60 242 0.0 0.0 0.00 0.00 0.00 83 1012.3
20190626060100 60 242 0.0 0.0 0.00 0.00 0.00 82 1012.3
20190626055111 61 242 0.0 0.0 0.00 0.00 0.00 81 1012.3
20190626054040 61 242 0.0 0.0 0.00 0.00 0.00 81 1012.4
20190626053049 61 242 0.0 0.0 0.00 0.00 0.00 80 1012.2
20190626052015 62 242 0.0 0.0 0.00 0.00 0.00 79 1012.1
20190626051002 63 242 0.0 0.0 0.00 0.00 0.00 77 1012.1
20190626045954 63 242 0.0 0.0 0.00 0.00 0.00 76 1012.0
20190626044940 64 242 0.0 0.0 0.00 0.00 0.00 76 1011.8
20190626043956 65 242 0.0 0.0 0.00 0.00 0.00 72 1011.8
20190626043010 65 242 0.0 0.0 0.00 0.00 0.00 69 1011.5
20190626041941 66 242 0.0 0.0 0.00 0.00 0.00 66 1011.4
20190626040936 66 242 0.0 0.0 0.00 0.00 0.00 63 1011.2